Theta_e
284 285 284 283 283 284 284 283 283 283 283 283 283 284 284 285 285 285 285 286 287 287 287 287 287 287 288 288 288 288 288 288 288 288 287 286 286 285 286 286 286 286
283 284 284 284 283 283 283 283 283 282 282 282 283 283 284 284 284 284 285 285 286 287 287 287 286 286 285 285 285 285 286 286 286 288 286 286 286 285 285 285 285 286
282 282 282 281 282 281 282 282 282 282 282 282 282 283 283 284 284 283 284 284 285 285 286 286 286 286 285 285 284 284 285 285 285 286 285 285 285 285 285 285 285 284
281 282 282 282 282 281 281 281 281 281 280 281 281 282 282 283 282 282 283 283 283 283 284 285 285 285 285 286 285 285 284 284 284 284 284 285 285 285 285 285 284 284
281 282 283 282 281 281 281 281 282 282 282 281 281 280 281 281 281 281 282 282 282 282 283 284 284 284 285 285 285 285 285 284 284 284 284 284 285 285 285 285 284 284
283 283 282 282 282 281 282 280 280 281 282 282 282 282 281 281 281 281 282 282 283 283 282 282 283 283 284 284 284 284 285 285 285 284 284 284 285 285 285 285 284 284
283 282 282 282 282 281 281 281 281 281 281 281 281 281 281 281 281 281 281 282 282 283 283 283 283 283 283 283 283 283 283 284 284 285 284 284 284 285 286 285 285 284
280 280 280 280 280 280 280 281 281 281 281 281 281 281 280 281 281 281 281 281 281 281 282 282 282 282 282 282 282 281 282 283 284 283 283 283 284 284 285 286 286 285
280 280 279 279 279 279 279 280 280 280 280 280 281 281 281 281 281 280 280 280 280 280 281 281 282 282 282 282 282 282 282 282 282 282 282 282 283 283 284 284 284 285
278 279 278 279 279 280 279 279 279 280 280 280 280 280 280 280 280 280 280 280 280 280 280 280 280 281 281 281 282 282 281 281 282 282 282 282 282 283 283 283 283 284
278 278 278 279 278 279 279 279 279 280 280 280 280 280 280 280 280 279 279 279 280 280 280 280 281 281 280 281 281 281 281 281 281 282 282 282 282 282 283 283 283 283
279 279 279 279 279 279 279 279 279 279 279 279 279 279 279 279 279 280 280 279 279 279 279 280 280 280 280 280 280 280 281 281 281 281 281 281 282 282 282 282 282 283
278 278 278 278 278 279 279 279 279 279 279 279 279 279 278 279 279 279 279 279 279 280 279 280 280 280 280 280 280 280 280 280 280 281 281 281 281 281 282 282 282 282
278 278 278 278 278 278 278 278 278 278 278 279 279 278 278 278 278 279 279 279 279 279 279 279 279 279 279 279 279 279 279 279 279 280 280 281 281 281 281 281 282 282
276 277 277 277 277 277 277 277 277 277 277 277 277 277 277 277 277 278 277 278 278 278 278 279 279 279 279 279 279 279 280 279 280 280 280 280 280 281 281 281 281 282
275 275 275 275 275 275 275 275 275 275 274 274 274 274 275 275 275 276 276 275 276 276 276 277 277 278 280 281 282 281 280 281 280 280 280 280 280 280 280 281 281 281
274 274 274 273 273 274 273 273 272 272 272 272 272 273 273 273 273 272 273 273 273 273 273 274 275 276 278 280 281 282 280 279 279 279 279 279 279 279 279 280 281 281
272 272 272 272 272 271 271 270 270 270 269 269 269 269 270 270 269 270 270 270 270 270 270 271 271 274 276 277 278 279 280 277 277 277 277 278 278 279 279 279 280 280
271 271 270 269 269 268 268 268 267 267 267 267 266 267 267 267 267 267 267 268 268 267 268 268 268 272 274 276 277 278 279 278 276 276 276 276 277 278 278 279 279 279
269 268 267 267 267 266 266 265 265 264 265 265 265 265 265 265 265 265 265 265 265 265 265 266 266 269 272 274 275 276 277 277 274 274 274 275 276 277 277 278 278 279
267 266 265 265 265 264 264 263 263 263 263 264 264 264 263 263 263 262 263 263 264 264 264 263 264 269 272 273 274 275 275 275 272 272 273 273 274 275 276 278 278 279
265 264 264 263 263 263 262 262 262 262 262 262 262 262 262 262 262 262 262 262 262 262 262 262 263 269 270 271 272 273 274 271 270 270 270 271 271 272 274 276 278 279
264 263 262 262 262 261 261 261 261 261 261 261 261 261 261 261 261 261 261 261 261 261 261 261 262 265 269 270 271 273 272 269 269 269 269 269 270 271 272 273 274 276
263 262 261 261 261 260 260 261 261 261 260 261 260 260 259 260 260 260 260 260 260 260 261 261 261 264 269 270 271 272 271 268 268 268 268 269 269 270 271 272 273 275
262 261 261 260 260 260 260 259 259 259 260 260 260 259 259 259 259 259 259 259 260 260 262 261 261 263 267 269 270 271 269 268 268 268 268 268 269 270 271 272 272 274
261 260 260 259 259 259 259 259 259 259 259 259 259 259 258 258 258 258 258 258 259 260 260 261 261 261 263 269 270 271 272 268 268 267 267 267 268 268 269 271 272 273
Wind_Speed
8 7 7 7 6 6 6 7 6 7 6 6 6 7 6 6 5 6 6 7 7 7 8 8 7 8 7 7 7 6 5 5 5 6 6 6 6 7 8 8 8 8
6 5 5 5 6 5 5 4 4 5 6 5 6 6 6 7 8 7 7 8 7 7 7 7 7 6 7 6 6 6 6 6 6 4 5 6 7 6 8 8 9 8
4 4 4 4 3 2 2 3 3 3 3 5 5 5 6 6 8 8 7 7 8 8 8 7 7 6 5 5 5 6 6 6 7 6 5 6 6 7 8 7 7 8
1 0 1 0 0 1 1 1 2 1 2 3 3 3 3 4 4 6 6 7 7 8 7 7 7 6 6 6 5 6 5 5 5 4 5 6 5 6 7 7 8 8
3 4 3 3 3 3 2 4 5 4 4 4 3 3 3 4 4 5 5 6 5 7 8 8 7 7 6 6 6 6 6 6 6 5 5 6 7 5 7 6 7 9
3 3 3 3 4 4 5 4 5 5 6 7 7 7 6 6 6 6 7 7 5 5 6 6 7 8 7 6 6 6 6 6 7 5 5 6 7 6 5 6 8 9
4 3 4 3 3 4 3 4 5 5 5 5 5 7 6 7 8 9 9 9 9 8 7 7 7 8 7 7 7 7 7 7 7 6 6 6 5 8 6 6 7 9
4 4 4 4 4 4 4 4 5 5 5 5 5 7 5 7 7 7 7 8 9 10 11 10 9 8 8 6 7 8 8 6 8 8 8 8 5 6 7 6 7 8
4 4 4 5 5 5 5 5 5 5 5 5 6 7 6 6 7 7 8 8 8 9 9 10 12 11 10 8 8 9 10 9 7 8 9 10 10 9 8 7 7 8
3 4 4 5 6 6 6 6 6 6 5 6 6 6 7 7 5 7 7 8 9 9 9 9 10 10 11 11 11 11 10 11 10 9 9 10 10 10 10 8 8 9
5 4 5 5 5 6 6 6 6 7 7 7 8 9 8 7 7 5 6 6 8 9 9 9 10 10 11 11 11 10 11 12 12 11 10 11 11 11 10 10 10 10
7 7 8 8 8 7 7 6 6 6 7 6 5 8 9 7 8 9 8 10 9 8 8 9 9 9 10 11 10 10 10 11 11 12 12 12 12 11 10 10 10 12
8 9 8 8 8 8 8 8 9 9 9 9 8 7 8 9 9 9 9 8 10 10 10 11 11 10 10 10 10 9 9 10 11 12 12 11 12 12 12 11 11 11
6 6 6 7 7 8 8 9 9 10 10 9 9 10 11 11 12 12 12 10 10 10 10 9 10 11 10 10 9 8 9 10 11 12 13 13 13 13 12 12 12 13
5 5 5 6 7 8 9 10 10 9 10 10 10 11 10 11 11 12 13 14 14 13 13 12 12 11 10 9 10 11 10 11 12 12 13 13 14 14 13 13 13 12
7 6 7 8 9 9 9 9 9 10 10 11 12 11 11 11 12 12 12 12 14 14 12 11 12 11 15 25 22 15 15 13 12 13 13 13 14 15 15 15 15 13
7 7 8 8 8 8 8 9 10 10 10 11 11 11 12 12 12 13 13 11 12 12 15 12 12 11 26 27 27 29 20 16 15 15 14 14 14 15 16 16 15 14
7 8 7 7 7 8 9 8 9 10 10 10 11 11 12 11 12 13 12 12 12 12 13 12 13 20 28 27 28 28 25 18 15 13 13 12 13 13 13 14 16 16
6 7 7 8 7 8 9 9 10 11 11 11 12 10 11 11 13 13 12 12 12 14 14 15 15 22 26 28 28 28 28 24 14 13 14 14 15 14 14 15 13 15
6 6 7 7 8 9 9 10 10 11 10 10 10 10 10 11 12 11 13 11 13 14 15 16 16 19 27 28 27 27 27 24 16 16 15 16 16 15 13 15 14 13
7 7 7 8 8 9 9 10 10 10 10 10 9 11 11 12 11 12 12 10 12 11 14 17 14 24 26 27 26 27 27 24 16 13 14 14 15 16 17 16 15 14
6 6 7 7 9 9 9 11 10 9 11 9 10 10 8 10 9 10 11 12 10 11 12 15 15 24 26 26 27 27 28 17 14 13 14 15 16 16 16 15 14 14
6 6 7 8 8 9 10 10 10 10 9 6 11 9 11 10 10 10 10 12 12 12 12 15 13 19 25 27 27 28 22 14 14 12 12 13 14 14 14 14 16 16
6 6 8 8 8 9 11 10 9 9 8 7 9 11 11 9 10 10 10 10 13 13 11 14 14 18 26 26 27 26 23 16 14 14 16 15 14 14 13 13 16 28
5 6 7 8 9 10 9 11 10 10 9 8 7 9 10 9 9 9 10 9 10 12 19 20 15 16 24 25 27 26 21 14 15 14 15 15 15 16 14 13 14 17
5 6 7 8 10 11 10 9 9 9 9 9 9 8 9 9 9 10 11 10 9 12 11 12 14 13 16 26 26 25 25 17 12 13 13 16 15 16 16 14 14 14
Wind_Direction
33 32 34 34 33 30 20 17 9 14 7 3 7 349 348 328 335 349 351 355 0 3 1 357 359 358 354 349 346 342 330 311 305 296 295 288 278 271 269 268 262 251
27 31 32 31 26 17 12 15 7 14 1 358 352 343 338 342 344 352 352 353 356 1 357 358 356 353 347 345 339 339 326 323 313 301 300 298 286 281 275 269 265 266
18 28 32 36 25 352 331 332 341 346 347 335 335 344 340 344 343 346 348 352 348 349 353 351 347 348 341 336 335 329 321 318 312 310 309 295 290 285 276 274 272 263
2 93 116 163 233 290 282 295 295 279 283 303 308 304 308 315 330 333 338 345 346 340 342 344 342 336 337 330 331 324 313 306 292 301 304 300 290 281 280 276 273 275
344 346 355 358 347 339 332 346 343 335 333 311 301 307 310 316 325 325 328 330 336 334 335 336 335 333 331 328 328 321 316 309 305 309 305 297 290 289 283 282 278 275
330 331 323 330 325 335 337 330 320 325 327 337 334 329 329 328 331 330 327 325 321 317 318 322 325 327 328 324 322 312 308 308 300 301 296 290 292 287 283 282 282 280
311 321 312 307 309 307 308 301 304 310 307 299 317 321 325 327 330 330 330 328 326 323 318 314 314 313 316 320 320 314 312 305 303 300 289 283 281 287 281 275 273 274
305 305 303 304 308 301 305 299 298 302 299 315 313 304 316 311 311 313 316 320 322 321 322 320 314 307 307 310 306 308 305 308 309 307 303 296 285 278 280 277 272 274
311 313 320 319 321 309 308 301 301 303 306 310 303 303 308 304 302 304 305 307 306 304 309 314 315 316 313 307 302 300 299 298 297 301 301 300 298 289 285 280 280 273
311 316 325 322 327 317 319 316 319 315 314 313 302 300 298 293 291 293 295 297 296 298 297 296 301 302 305 307 306 303 298 295 295 293 292 291 289 290 288 284 277 281
344 337 336 336 332 324 318 319 321 319 321 319 319 318 314 311 305 288 285 284 283 286 290 291 291 292 293 295 297 298 300 302 301 298 291 287 286 286 286 284 282 274
355 353 350 344 339 334 327 319 314 315 314 314 312 309 310 308 305 310 307 303 298 290 285 287 288 288 287 287 288 291 291 293 294 295 297 294 290 284 282 281 280 279
352 348 342 339 337 330 329 332 333 332 331 327 327 317 313 314 310 305 302 298 297 299 298 297 296 290 286 285 286 286 285 285 287 289 288 290 289 288 285 280 275 276
342 334 334 333 332 331 333 335 334 334 332 330 332 330 326 324 322 319 315 311 305 303 299 296 293 291 289 287 286 285 287 286 287 289 288 285 283 281 281 277 273 271
330 331 331 335 335 338 338 336 335 335 335 333 330 324 320 317 317 315 315 315 314 312 311 310 306 301 298 298 299 297 291 290 289 286 287 288 288 285 279 275 272 268
338 338 343 344 341 338 335 337 338 335 330 326 322 319 318 317 316 316 316 314 314 313 313 311 306 306 305 307 308 307 305 303 299 295 293 289 287 285 283 279 275 270
342 341 341 339 335 336 340 338 331 329 325 321 319 320 321 320 320 317 314 314 316 313 310 308 304 302 306 308 309 308 308 306 303 299 292 287 284 282 282 282 277 272
336 334 337 337 343 338 334 332 327 325 323 320 318 319 318 318 315 312 313 316 314 312 306 303 303 305 308 310 309 309 307 304 300 296 292 286 283 277 277 278 279 281
334 342 342 339 338 335 329 328 325 320 320 321 316 315 315 312 314 316 313 316 313 310 306 304 303 309 312 312 309 308 306 304 296 289 285 282 279 277 274 274 273 272
351 347 337 332 331 328 325 321 321 315 315 314 310 312 313 311 312 310 310 311 311 310 308 307 307 313 311 309 308 307 305 303 295 293 289 286 283 279 277 275 271 271
347 335 328 323 322 319 317 314 312 311 311 312 311 311 314 312 313 311 309 308 308 307 305 303 303 309 310 310 310 309 306 305 296 291 289 284 283 281 280 277 272 269
333 322 317 314 312 311 309 307 307 304 307 311 305 303 298 300 298 298 302 305 305 304 301 298 302 308 309 309 309 307 305 302 296 289 287 286 285 286 283 281 278 272
318 313 309 307 306 306 303 301 302 303 300 302 298 298 300 300 298 298 302 302 300 298 296 295 297 306 307 307 306 305 306 298 293 285 279 278 279 281 284 285 285 285
308 305 302 302 301 297 297 296 295 292 290 297 295 300 299 296 297 297 294 294 295 296 294 294 297 304 305 305 305 303 303 300 298 292 288 286 282 277 274 274 277 282
299 297 295 297 294 292 293 294 296 293 293 294 286 289 289 296 295 293 292 289 287 288 296 297 294 299 303 304 302 302 302 295 294 292 292 293 295 294 289 284 283 285
293 293 290 290 291 291 290 288 290 293 292 293 291 288 291 294 291 290 291 290 287 288 288 289 291 294 299 301 302 300 301 299 294 295 297 300 300 300 301 298 294 288